Data supplied by UK-AIR on 5/4/2008
All Data GMT hour ending 
Status: R =Ratified P=Provisional,P*=As supplied
,,West London,,,,,,,,,,,,,,,,,,,,,,,
Date,time,"Carbon monoxide",status,unit,"Nitric oxide",status,unit,"Nitrogen dioxide",status,unit,"Nitrogen oxides as nitrogen dioxide",status,unit
 
01-01-1994,01:00,1.3,R,mgm-3,60,R,ugm-3,50,R,ugm-3,141,R,ugm-3
01-01-1994,02:00,1.2,R,mgm-3,39,R,ugm-3,53,R,ugm-3,113,R,ugm-3
01-01-1994,03:00,1.3,R,mgm-3,55,R,ugm-3,50,R,ugm-3,134,R,ugm-3
01-01-1994,04:00,1.0,R,mgm-3,38,R,ugm-3,50,R,ugm-3,107,R,ugm-3
01-01-1994,05:00,1.2,R,mgm-3,73,R,ugm-3,53,R,ugm-3,164,R,ugm-3
01-01-1994,06:00,1.2,R,mgm-3,73,R,ugm-3,55,R,ugm-3,166,R,ugm-3
01-01-1994,07:00,1.0,R,mgm-3,48,R,ugm-3,46,R,ugm-3,118,R,ugm-3
01-01-1994,08:00,1.0,R,mgm-3,70,R,ugm-3,55,R,ugm-3,162,R,ugm-3
01-01-1994,09:00,0.9,R,mgm-3,58,R,ugm-3,46,R,ugm-3,134,R,ugm-3
01-01-1994,10:00,0.8,R,mgm-3,54,R,ugm-3,46,R,ugm-3,128,R,ugm-3
01-01-1994,11:00,0.7,R,mgm-3,34,R,ugm-3,40,R,ugm-3,92,R,ugm-3
01-01-1994,12:00,0.9,R,mgm-3,41,R,ugm-3,46,R,ugm-3,109,R,ugm-3
01-01-1994,13:00,1.0,R,mgm-3,56,R,ugm-3,50,R,ugm-3,136,R,ugm-3
01-01-1994,14:00,1.3,R,mgm-3,64,R,ugm-3,55,R,ugm-3,153,R,ugm-3
01-01-1994,15:00,1.5,R,mgm-3,65,R,ugm-3,55,R,ugm-3,155,R,ugm-3
01-01-1994,16:00,1.7,R,mgm-3,96,R,ugm-3,65,R,ugm-3,212,R,ugm-3
01-01-1994,17:00,1.7,R,mgm-3,84,R,ugm-3,61,R,ugm-3,189,R,ugm-3
01-01-1994,18:00,1.5,R,mgm-3,68,R,ugm-3,55,R,ugm-3,159,R,ugm-3
01-01-1994,19:00,1.5,R,mgm-3,66,R,ugm-3,67,R,ugm-3,168,R,ugm-3
01-01-1994,20:00,1.0,R,mgm-3,28,R,ugm-3,55,R,ugm-3,97,R,ugm-3
01-01-1994,21:00,0.7,R,mgm-3,13,R,ugm-3,44,R,ugm-3,63,R,ugm-3
01-01-1994,22:00,0.6,R,mgm-3,8,R,ugm-3,32,R,ugm-3,44,R,ugm-3
01-01-1994,23:00,0.5,R,mgm-3,4,R,ugm-3,19,R,ugm-3,25,R,ugm-3
01-01-1994,24:00,0.3,R,mgm-3,1,R,ugm-3,10,R,ugm-3,11,R,ugm-3
02-01-1994,01:00,0.2,R,mgm-3,1,R,ugm-3,19,R,ugm-3,21,R,ugm-3
02-01-1994,02:00,0.1,R,mgm-3,1,R,ugm-3,11,R,ugm-3,13,R,ugm-3
02-01-1994,03:00,0.2,R,mgm-3,3,R,ugm-3,21,R,ugm-3,25,R,ugm-3
02-01-1994,04:00,0.3,R,mgm-3,4,R,ugm-3,25,R,ugm-3,31,R,ugm-3
02-01-1994,05:00,0.1,R,mgm-3,1,R,ugm-3,13,R,ugm-3,15,R,ugm-3
02-01-1994,06:00,0.1,R,mgm-3,0,R,ugm-3,11,R,ugm-3,11,R,ugm-3
02-01-1994,07:00,0.1,R,mgm-3,0,R,ugm-3,15,R,ugm-3,15,R,ugm-3
02-01-1994,08:00,0.1,R,mgm-3,1,R,ugm-3,29,R,ugm-3,31,R,ugm-3
02-01-1994,09:00,0.2,R,mgm-3,3,R,ugm-3,32,R,ugm-3,36,R,ugm-3
02-01-1994,10:00,0.2,R,mgm-3,5,R,ugm-3,31,R,ugm-3,38,R,ugm-3
02-01-1994,11:00,0.3,R,mgm-3,9,R,ugm-3,36,R,ugm-3,50,R,ugm-3
02-01-1994,12:00,0.5,R,mgm-3,15,R,ugm-3,40,R,ugm-3,63,R,ugm-3
02-01-1994,13:00,0.6,R,mgm-3,16,R,ugm-3,44,R,ugm-3,69,R,ugm-3
02-01-1994,14:00,0.6,R,mgm-3,15,R,ugm-3,42,R,ugm-3,65,R,ugm-3
02-01-1994,15:00,0.7,R,mgm-3,20,R,ugm-3,52,R,ugm-3,82,R,ugm-3
02-01-1994,16:00,1.3,R,mgm-3,55,R,ugm-3,69,R,ugm-3,153,R,ugm-3
02-01-1994,17:00,0.9,R,mgm-3,29,R,ugm-3,69,R,ugm-3,113,R,ugm-3
02-01-1994,18:00,1.2,R,mgm-3,49,R,ugm-3,71,R,ugm-3,145,R,ugm-3
02-01-1994,19:00,0.8,R,mgm-3,24,R,ugm-3,59,R,ugm-3,96,R,ugm-3
02-01-1994,20:00,0.9,R,mgm-3,39,R,ugm-3,65,R,ugm-3,124,R,ugm-3
02-01-1994,21:00,0.8,R,mgm-3,36,R,ugm-3,55,R,ugm-3,111,R,ugm-3
02-01-1994,22:00,0.6,R,mgm-3,23,R,ugm-3,44,R,ugm-3,78,R,ugm-3
02-01-1994,23:00,0.6,R,mgm-3,28,R,ugm-3,48,R,ugm-3,90,R,ugm-3
02-01-1994,24:00,0.6,R,mgm-3,19,R,ugm-3,40,R,ugm-3,69,R,ugm-3
03-01-1994,01:00,0.5,R,mgm-3,23,R,ugm-3,32,R,ugm-3,67,R,ugm-3
03-01-1994,02:00,0.5,R,mgm-3,18,R,ugm-3,32,R,ugm-3,59,R,ugm-3
03-01-1994,03:00,0.2,R,mgm-3,4,R,ugm-3,17,R,ugm-3,23,R,ugm-3
03-01-1994,04:00,0.2,R,mgm-3,3,R,ugm-3,13,R,ugm-3,17,R,ugm-3
03-01-1994,05:00,0.2,R,mgm-3,6,R,ugm-3,23,R,ugm-3,32,R,ugm-3
03-01-1994,06:00,0.2,R,mgm-3,5,R,ugm-3,21,R,ugm-3,29,R,ugm-3
03-01-1994,07:00,0.2,R,mgm-3,8,R,ugm-3,31,R,ugm-3,42,R,ugm-3
03-01-1994,08:00,0.5,R,mgm-3,14,R,ugm-3,38,R,ugm-3,59,R,ugm-3
03-01-1994,09:00,0.5,R,mgm-3,11,R,ugm-3,34,R,ugm-3,52,R,ugm-3
03-01-1994,10:00,0.5,R,mgm-3,13,R,ugm-3,27,R,ugm-3,46,R,ugm-3
03-01-1994,11:00,0.6,R,mgm-3,15,R,ugm-3,25,R,ugm-3,48,R,ugm-3
03-01-1994,12:00,0.6,R,mgm-3,14,R,ugm-3,29,R,ugm-3,50,R,ugm-3
03-01-1994,13:00,0.6,R,mgm-3,13,R,ugm-3,34,R,ugm-3,53,R,ugm-3
03-01-1994,14:00,1.0,R,mgm-3,25,R,ugm-3,52,R,ugm-3,90,R,ugm-3
03-01-1994,15:00,1.6,R,mgm-3,50,R,ugm-3,63,R,ugm-3,139,R,ugm-3
03-01-1994,16:00,0.8,R,mgm-3,20,R,ugm-3,40,R,ugm-3,71,R,ugm-3
03-01-1994,17:00,0.5,R,mgm-3,10,R,ugm-3,19,R,ugm-3,34,R,ugm-3
03-01-1994,18:00,0.3,R,mgm-3,10,R,ugm-3,17,R,ugm-3,32,R,ugm-3
03-01-1994,19:00,0.5,R,mgm-3,9,R,ugm-3,27,R,ugm-3,40,R,ugm-3
03-01-1994,20:00,0.3,R,mgm-3,5,R,ugm-3,25,R,ugm-3,32,R,ugm-3
03-01-1994,21:00,0.5,R,mgm-3,15,R,ugm-3,32,R,ugm-3,55,R,ugm-3
03-01-1994,22:00,0.3,R,mgm-3,8,R,ugm-3,23,R,ugm-3,34,R,ugm-3
03-01-1994,23:00,0.3,R,mgm-3,10,R,ugm-3,27,R,ugm-3,42,R,ugm-3
03-01-1994,24:00,0.5,R,mgm-3,16,R,ugm-3,36,R,ugm-3,61,R,ugm-3
04-01-1994,01:00,0.3,R,mgm-3,16,R,ugm-3,25,R,ugm-3,50,R,ugm-3
04-01-1994,02:00,0.1,R,mgm-3,13,R,ugm-3,15,R,ugm-3,34,R,ugm-3
04-01-1994,03:00,0.1,R,mgm-3,10,R,ugm-3,11,R,ugm-3,27,R,ugm-3
04-01-1994,04:00,0.1,R,mgm-3,10,R,ugm-3,8,R,ugm-3,23,R,ugm-3
04-01-1994,05:00,0.1,R,mgm-3,10,R,ugm-3,10,R,ugm-3,25,R,ugm-3
04-01-1994,06:00,0.2,R,mgm-3,11,R,ugm-3,15,R,ugm-3,32,R,ugm-3
04-01-1994,07:00,0.5,R,mgm-3,30,R,ugm-3,38,R,ugm-3,84,R,ugm-3
04-01-1994,08:00,0.9,R,mgm-3,34,R,ugm-3,48,R,ugm-3,99,R,ugm-3
04-01-1994,09:00,1.2,R,mgm-3,45,R,ugm-3,55,R,ugm-3,124,R,ugm-3
04-01-1994,10:00,1.5,R,mgm-3,56,R,ugm-3,61,R,ugm-3,147,R,ugm-3
04-01-1994,11:00,0.7,R,mgm-3,40,R,ugm-3,48,R,ugm-3,109,R,ugm-3
04-01-1994,12:00,1.6,R,mgm-3,108,R,ugm-3,78,R,ugm-3,243,R,ugm-3
04-01-1994,13:00,1.4,R,mgm-3,89,R,ugm-3,76,R,ugm-3,212,R,ugm-3
04-01-1994,14:00,1.0,R,mgm-3,58,R,ugm-3,63,R,ugm-3,151,R,ugm-3
04-01-1994,15:00,1.2,R,mgm-3,53,R,ugm-3,55,R,ugm-3,136,R,ugm-3
04-01-1994,16:00,1.4,R,mgm-3,125,R,ugm-3,80,R,ugm-3,271,R,ugm-3
04-01-1994,17:00,1.3,R,mgm-3,58,R,ugm-3,59,R,ugm-3,147,R,ugm-3
04-01-1994,18:00,1.6,R,mgm-3,51,R,ugm-3,61,R,ugm-3,139,R,ugm-3
04-01-1994,19:00,2.1,R,mgm-3,99,R,ugm-3,67,R,ugm-3,218,R,ugm-3
04-01-1994,20:00,2.0,R,mgm-3,136,R,ugm-3,71,R,ugm-3,279,R,ugm-3
04-01-1994,21:00,1.9,R,mgm-3,118,R,ugm-3,67,R,ugm-3,246,R,ugm-3
04-01-1994,22:00,1.5,R,mgm-3,113,R,ugm-3,67,R,ugm-3,239,R,ugm-3
04-01-1994,23:00,1.0,R,mgm-3,74,R,ugm-3,55,R,ugm-3,168,R,ugm-3
04-01-1994,24:00,0.7,R,mgm-3,40,R,ugm-3,44,R,ugm-3,105,R,ugm-3
05-01-1994,01:00,0.6,R,mgm-3,36,R,ugm-3,42,R,ugm-3,97,R,ugm-3
05-01-1994,02:00,0.5,R,mgm-3,18,R,ugm-3,31,R,ugm-3,57,R,ugm-3
05-01-1994,03:00,0.3,R,mgm-3,6,R,ugm-3,21,R,ugm-3,31,R,ugm-3
05-01-1994,04:00,0.1,R,mgm-3,3,R,ugm-3,8,R,ugm-3,11,R,ugm-3
05-01-1994,05:00,0.1,R,mgm-3,3,R,ugm-3,0,R,ugm-3,4,R,ugm-3
05-01-1994,06:00,0.2,R,mgm-3,6,R,ugm-3,6,R,ugm-3,15,R,ugm-3
05-01-1994,07:00,0.2,R,mgm-3,10,R,ugm-3,10,R,ugm-3,25,R,ugm-3
05-01-1994,08:00,0.6,R,mgm-3,18,R,ugm-3,27,R,ugm-3,53,R,ugm-3
05-01-1994,09:00,0.9,R,mgm-3,31,R,ugm-3,38,R,ugm-3,86,R,ugm-3
05-01-1994,10:00,0.7,R,mgm-3,24,R,ugm-3,34,R,ugm-3,71,R,ugm-3
05-01-1994,11:00,0.9,R,mgm-3,43,R,ugm-3,50,R,ugm-3,115,R,ugm-3
05-01-1994,12:00,0.6,R,mgm-3,33,R,ugm-3,32,R,ugm-3,82,R,ugm-3
05-01-1994,13:00,0.6,R,mgm-3,39,R,ugm-3,36,R,ugm-3,96,R,ugm-3
05-01-1994,14:00,0.7,R,mgm-3,38,R,ugm-3,38,R,ugm-3,96,R,ugm-3
05-01-1994,15:00,0.6,R,mgm-3,40,R,ugm-3,42,R,ugm-3,103,R,ugm-3
05-01-1994,16:00,0.8,R,mgm-3,43,R,ugm-3,48,R,ugm-3,113,R,ugm-3
05-01-1994,17:00,1.0,R,mgm-3,45,R,ugm-3,57,R,ugm-3,126,R,ugm-3
05-01-1994,18:00,0.9,R,mgm-3,35,R,ugm-3,48,R,ugm-3,101,R,ugm-3
05-01-1994,19:00,1.0,R,mgm-3,48,R,ugm-3,55,R,ugm-3,128,R,ugm-3
05-01-1994,20:00,1.7,R,mgm-3,86,R,ugm-3,71,R,ugm-3,202,R,ugm-3
05-01-1994,21:00,1.5,R,mgm-3,105,R,ugm-3,76,R,ugm-3,237,R,ugm-3
05-01-1994,22:00,1.5,R,mgm-3,68,R,ugm-3,71,R,ugm-3,174,R,ugm-3
05-01-1994,23:00,1.4,R,mgm-3,73,R,ugm-3,73,R,ugm-3,183,R,ugm-3
05-01-1994,24:00,1.3,R,mgm-3,53,R,ugm-3,67,R,ugm-3,147,R,ugm-3
06-01-1994,01:00,0.8,R,mgm-3,25,R,ugm-3,57,R,ugm-3,96,R,ugm-3
06-01-1994,02:00,0.3,R,mgm-3,23,R,ugm-3,36,R,ugm-3,71,R,ugm-3
06-01-1994,03:00,0.2,R,mgm-3,16,R,ugm-3,31,R,ugm-3,55,R,ugm-3
06-01-1994,04:00,0.1,R,mgm-3,15,R,ugm-3,32,R,ugm-3,55,R,ugm-3
06-01-1994,05:00,0.2,R,mgm-3,5,R,ugm-3,29,R,ugm-3,36,R,ugm-3
06-01-1994,06:00,0.5,R,mgm-3,38,R,ugm-3,63,R,ugm-3,120,R,ugm-3
06-01-1994,07:00,1.0,R,mgm-3,60,R,ugm-3,73,R,ugm-3,164,R,ugm-3
06-01-1994,08:00,1.2,R,mgm-3,75,R,ugm-3,84,R,ugm-3,199,R,ugm-3
06-01-1994,09:00,3.0,R,mgm-3,191,R,ugm-3,109,R,ugm-3,401,R,ugm-3
06-01-1994,10:00,3.8,R,mgm-3,191,R,ugm-3,109,R,ugm-3,401,R,ugm-3
06-01-1994,11:00,2.8,R,mgm-3,154,R,ugm-3,101,R,ugm-3,336,R,ugm-3
06-01-1994,12:00,4.6,R,mgm-3,251,R,ugm-3,130,R,ugm-3,514,R,ugm-3
06-01-1994,13:00,4.4,R,mgm-3,250,R,ugm-3,128,R,ugm-3,510,R,ugm-3
06-01-1994,14:00,3.4,R,mgm-3,215,R,ugm-3,107,R,ugm-3,435,R,ugm-3
06-01-1994,15:00,2.6,R,mgm-3,168,R,ugm-3,94,R,ugm-3,350,R,ugm-3
06-01-1994,16:00,2.9,R,mgm-3,184,R,ugm-3,96,R,ugm-3,376,R,ugm-3
06-01-1994,17:00,2.3,R,mgm-3,110,R,ugm-3,82,R,ugm-3,250,R,ugm-3
06-01-1994,18:00,2.0,R,mgm-3,70,R,ugm-3,80,R,ugm-3,187,R,ugm-3
06-01-1994,19:00,1.6,R,mgm-3,50,R,ugm-3,73,R,ugm-3,149,R,ugm-3
06-01-1994,20:00,1.9,R,mgm-3,81,R,ugm-3,57,R,ugm-3,181,R,ugm-3
06-01-1994,21:00,1.9,R,mgm-3,94,R,ugm-3,61,R,ugm-3,204,R,ugm-3
06-01-1994,22:00,1.3,R,mgm-3,63,R,ugm-3,61,R,ugm-3,157,R,ugm-3
06-01-1994,23:00,1.2,R,mgm-3,64,R,ugm-3,65,R,ugm-3,162,R,ugm-3
06-01-1994,24:00,1.5,R,mgm-3,103,R,ugm-3,74,R,ugm-3,231,R,ugm-3
07-01-1994,01:00,1.0,R,mgm-3,58,R,ugm-3,71,R,ugm-3,159,R,ugm-3
07-01-1994,02:00,0.8,R,mgm-3,49,R,ugm-3,65,R,ugm-3,139,R,ugm-3
07-01-1994,03:00,0.7,R,mgm-3,54,R,ugm-3,59,R,ugm-3,141,R,ugm-3
07-01-1994,04:00,0.5,R,mgm-3,41,R,ugm-3,53,R,ugm-3,117,R,ugm-3
07-01-1994,05:00,0.5,R,mgm-3,30,R,ugm-3,46,R,ugm-3,92,R,ugm-3
07-01-1994,06:00,0.5,R,mgm-3,45,R,ugm-3,48,R,ugm-3,117,R,ugm-3
07-01-1994,07:00,1.0,R,mgm-3,114,R,ugm-3,63,R,ugm-3,237,R,ugm-3
07-01-1994,08:00,2.1,R,mgm-3,164,R,ugm-3,74,R,ugm-3,325,R,ugm-3
07-01-1994,09:00,2.8,R,mgm-3,166,R,ugm-3,80,R,ugm-3,334,R,ugm-3
07-01-1994,10:00,3.2,R,mgm-3,211,R,ugm-3,82,R,ugm-3,405,R,ugm-3
07-01-1994,11:00,2.3,R,mgm-3,146,R,ugm-3,74,R,ugm-3,298,R,ugm-3
07-01-1994,12:00,2.4,R,mgm-3,153,R,ugm-3,86,R,ugm-3,319,R,ugm-3
07-01-1994,13:00,2.3,R,mgm-3,181,R,ugm-3,86,R,ugm-3,363,R,ugm-3
07-01-1994,14:00,2.2,R,mgm-3,163,R,ugm-3,78,R,ugm-3,327,R,ugm-3
07-01-1994,15:00,1.7,R,mgm-3,116,R,ugm-3,63,R,ugm-3,241,R,ugm-3
07-01-1994,16:00,2.8,R,mgm-3,193,R,ugm-3,80,R,ugm-3,374,R,ugm-3
07-01-1994,17:00,3.4,R,mgm-3,265,R,ugm-3,92,R,ugm-3,497,R,ugm-3
07-01-1994,18:00,4.2,R,mgm-3,264,R,ugm-3,86,R,ugm-3,489,R,ugm-3
07-01-1994,19:00,5.5,R,mgm-3,355,R,ugm-3,99,R,ugm-3,642,R,ugm-3
07-01-1994,20:00,6.1,R,mgm-3,424,R,ugm-3,111,R,ugm-3,758,R,ugm-3
07-01-1994,21:00,5.8,R,mgm-3,469,R,ugm-3,113,R,ugm-3,829,R,ugm-3
07-01-1994,22:00,4.9,R,mgm-3,393,R,ugm-3,99,R,ugm-3,699,R,ugm-3
07-01-1994,23:00,4.9,R,mgm-3,415,R,ugm-3,113,R,ugm-3,747,R,ugm-3
07-01-1994,24:00,5.0,R,mgm-3,428,R,ugm-3,115,R,ugm-3,768,R,ugm-3
08-01-1994,01:00,4.8,R,mgm-3,414,R,ugm-3,105,R,ugm-3,737,R,ugm-3
08-01-1994,02:00,3.6,R,mgm-3,300,R,ugm-3,82,R,ugm-3,541,R,ugm-3
08-01-1994,03:00,3.5,R,mgm-3,300,R,ugm-3,82,R,ugm-3,541,R,ugm-3
08-01-1994,04:00,3.8,R,mgm-3,339,R,ugm-3,86,R,ugm-3,604,R,ugm-3
08-01-1994,05:00,4.1,R,mgm-3,351,R,ugm-3,88,R,ugm-3,625,R,ugm-3
08-01-1994,06:00,3.7,R,mgm-3,313,R,ugm-3,88,R,ugm-3,565,R,ugm-3
08-01-1994,07:00,3.1,R,mgm-3,323,R,ugm-3,94,R,ugm-3,586,R,ugm-3
08-01-1994,08:00,3.7,R,mgm-3,375,R,ugm-3,105,R,ugm-3,678,R,ugm-3
08-01-1994,09:00,4.6,R,mgm-3,446,R,ugm-3,132,R,ugm-3,814,R,ugm-3
08-01-1994,10:00,3.1,R,mgm-3,263,R,ugm-3,99,R,ugm-3,500,R,ugm-3
08-01-1994,11:00,3.2,R,mgm-3,211,R,ugm-3,94,R,ugm-3,416,R,ugm-3
08-01-1994,12:00,3.6,R,mgm-3,221,R,ugm-3,101,R,ugm-3,439,R,ugm-3
08-01-1994,13:00,4.6,R,mgm-3,274,R,ugm-3,120,R,ugm-3,539,R,ugm-3
08-01-1994,14:00,5.2,R,mgm-3,273,R,ugm-3,120,R,ugm-3,537,R,ugm-3
08-01-1994,15:00,2.6,R,mgm-3,126,R,ugm-3,67,R,ugm-3,260,R,ugm-3
08-01-1994,16:00,2.3,R,mgm-3,121,R,ugm-3,57,R,ugm-3,243,R,ugm-3
08-01-1994,17:00,2.3,R,mgm-3,120,R,ugm-3,53,R,ugm-3,237,R,ugm-3
08-01-1994,18:00,1.9,R,mgm-3,74,R,ugm-3,52,R,ugm-3,164,R,ugm-3
08-01-1994,19:00,2.3,R,mgm-3,105,R,ugm-3,61,R,ugm-3,222,R,ugm-3
08-01-1994,20:00,1.6,R,mgm-3,73,R,ugm-3,50,R,ugm-3,160,R,ugm-3
08-01-1994,21:00,0.8,R,mgm-3,28,R,ugm-3,38,R,ugm-3,80,R,ugm-3
08-01-1994,22:00,0.6,R,mgm-3,19,R,ugm-3,27,R,ugm-3,55,R,ugm-3
08-01-1994,23:00,0.5,R,mgm-3,15,R,ugm-3,25,R,ugm-3,48,R,ugm-3
08-01-1994,24:00,0.3,R,mgm-3,13,R,ugm-3,21,R,ugm-3,40,R,ugm-3
09-01-1994,01:00,0.3,R,mgm-3,13,R,ugm-3,19,R,ugm-3,38,R,ugm-3
09-01-1994,02:00,0.2,R,mgm-3,5,R,ugm-3,13,R,ugm-3,21,R,ugm-3
09-01-1994,03:00,0.2,R,mgm-3,4,R,ugm-3,11,R,ugm-3,17,R,ugm-3
09-01-1994,04:00,0.1,R,mgm-3,3,R,ugm-3,8,R,ugm-3,11,R,ugm-3
09-01-1994,05:00,0.1,R,mgm-3,0,R,ugm-3,6,R,ugm-3,6,R,ugm-3
09-01-1994,06:00,0.1,R,mgm-3,3,R,ugm-3,10,R,ugm-3,13,R,ugm-3
09-01-1994,07:00,0.3,R,mgm-3,16,R,ugm-3,36,R,ugm-3,61,R,ugm-3
09-01-1994,08:00,0.5,R,mgm-3,21,R,ugm-3,42,R,ugm-3,74,R,ugm-3
09-01-1994,09:00,0.5,R,mgm-3,20,R,ugm-3,36,R,ugm-3,67,R,ugm-3
09-01-1994,10:00,0.7,R,mgm-3,26,R,ugm-3,38,R,ugm-3,78,R,ugm-3
09-01-1994,11:00,0.8,R,mgm-3,21,R,ugm-3,31,R,ugm-3,63,R,ugm-3
09-01-1994,12:00,0.8,R,mgm-3,23,R,ugm-3,31,R,ugm-3,65,R,ugm-3
09-01-1994,13:00,0.8,R,mgm-3,20,R,ugm-3,31,R,ugm-3,61,R,ugm-3
09-01-1994,14:00,0.7,R,mgm-3,16,R,ugm-3,25,R,ugm-3,50,R,ugm-3
09-01-1994,15:00,0.9,R,mgm-3,24,R,ugm-3,36,R,ugm-3,73,R,ugm-3
09-01-1994,16:00,0.7,R,mgm-3,20,R,ugm-3,32,R,ugm-3,63,R,ugm-3
09-01-1994,17:00,0.7,R,mgm-3,23,R,ugm-3,34,R,ugm-3,69,R,ugm-3
09-01-1994,18:00,0.8,R,mgm-3,20,R,ugm-3,34,R,ugm-3,65,R,ugm-3
09-01-1994,19:00,0.6,R,mgm-3,18,R,ugm-3,31,R,ugm-3,57,R,ugm-3
09-01-1994,20:00,0.6,R,mgm-3,15,R,ugm-3,23,R,ugm-3,46,R,ugm-3
09-01-1994,21:00,0.3,R,mgm-3,10,R,ugm-3,19,R,ugm-3,34,R,ugm-3
09-01-1994,22:00,0.3,R,mgm-3,9,R,ugm-3,21,R,ugm-3,34,R,ugm-3
09-01-1994,23:00,0.3,R,mgm-3,11,R,ugm-3,21,R,ugm-3,38,R,ugm-3
09-01-1994,24:00,0.3,R,mgm-3,14,R,ugm-3,29,R,ugm-3,50,R,ugm-3
10-01-1994,01:00,0.3,R,mgm-3,14,R,ugm-3,38,R,ugm-3,59,R,ugm-3
10-01-1994,02:00,0.3,R,mgm-3,14,R,ugm-3,42,R,ugm-3,63,R,ugm-3
10-01-1994,03:00,0.2,R,mgm-3,11,R,ugm-3,42,R,ugm-3,59,R,ugm-3
10-01-1994,04:00,0.1,R,mgm-3,0,R,ugm-3,29,R,ugm-3,29,R,ugm-3
10-01-1994,05:00,0.1,R,mgm-3,0,R,ugm-3,25,R,ugm-3,25,R,ugm-3
10-01-1994,06:00,0.2,R,mgm-3,5,R,ugm-3,40,R,ugm-3,48,R,ugm-3
10-01-1994,07:00,0.8,R,mgm-3,44,R,ugm-3,63,R,ugm-3,130,R,ugm-3
10-01-1994,08:00,1.5,R,mgm-3,86,R,ugm-3,86,R,ugm-3,218,R,ugm-3
10-01-1994,09:00,2.4,R,mgm-3,101,R,ugm-3,94,R,ugm-3,248,R,ugm-3
10-01-1994,10:00,2.7,R,mgm-3,116,R,ugm-3,97,R,ugm-3,275,R,ugm-3
10-01-1994,11:00,1.6,R,mgm-3,74,R,ugm-3,84,R,ugm-3,197,R,ugm-3
10-01-1994,12:00,0.9,R,mgm-3,43,R,ugm-3,69,R,ugm-3,134,R,ugm-3
10-01-1994,13:00,1.0,R,mgm-3,50,R,ugm-3,71,R,ugm-3,147,R,ugm-3
10-01-1994,14:00,1.3,R,mgm-3,61,R,ugm-3,78,R,ugm-3,172,R,ugm-3
10-01-1994,15:00,1.2,R,mgm-3,66,R,ugm-3,74,R,ugm-3,176,R,ugm-3
10-01-1994,16:00,1.0,R,mgm-3,50,R,ugm-3,61,R,ugm-3,138,R,ugm-3
10-01-1994,17:00,1.6,R,mgm-3,70,R,ugm-3,71,R,ugm-3,178,R,ugm-3
10-01-1994,18:00,2.1,R,mgm-3,81,R,ugm-3,74,R,ugm-3,199,R,ugm-3
10-01-1994,19:00,2.6,R,mgm-3,103,R,ugm-3,78,R,ugm-3,235,R,ugm-3
10-01-1994,20:00,2.0,R,mgm-3,81,R,ugm-3,73,R,ugm-3,197,R,ugm-3
10-01-1994,21:00,1.2,R,mgm-3,55,R,ugm-3,69,R,ugm-3,153,R,ugm-3
10-01-1994,22:00,1.0,R,mgm-3,39,R,ugm-3,61,R,ugm-3,120,R,ugm-3
10-01-1994,23:00,0.7,R,mgm-3,31,R,ugm-3,53,R,ugm-3,101,R,ugm-3
10-01-1994,24:00,0.7,R,mgm-3,25,R,ugm-3,48,R,ugm-3,86,R,ugm-3
11-01-1994,01:00,0.3,R,mgm-3,18,R,ugm-3,52,R,ugm-3,78,R,ugm-3
11-01-1994,02:00,0.2,R,mgm-3,1,R,ugm-3,29,R,ugm-3,31,R,ugm-3
11-01-1994,03:00,0.1,R,mgm-3,14,R,ugm-3,38,R,ugm-3,59,R,ugm-3
11-01-1994,04:00,0.2,R,mgm-3,28,R,ugm-3,53,R,ugm-3,96,R,ugm-3
11-01-1994,05:00,0.2,R,mgm-3,29,R,ugm-3,53,R,ugm-3,97,R,ugm-3
11-01-1994,06:00,0.3,R,mgm-3,24,R,ugm-3,57,R,ugm-3,94,R,ugm-3
11-01-1994,07:00,0.8,R,mgm-3,68,R,ugm-3,74,R,ugm-3,178,R,ugm-3
11-01-1994,08:00,1.6,R,mgm-3,94,R,ugm-3,80,R,ugm-3,223,R,ugm-3
11-01-1994,09:00,3.6,R,mgm-3,170,R,ugm-3,96,R,ugm-3,355,R,ugm-3
11-01-1994,10:00,3.7,R,mgm-3,156,R,ugm-3,96,R,ugm-3,334,R,ugm-3
11-01-1994,11:00,1.5,R,mgm-3,104,R,ugm-3,80,R,ugm-3,239,R,ugm-3
11-01-1994,12:00,0.9,R,mgm-3,63,R,ugm-3,61,R,ugm-3,157,R,ugm-3
11-01-1994,13:00,0.8,R,mgm-3,51,R,ugm-3,57,R,ugm-3,136,R,ugm-3
11-01-1994,14:00,0.6,R,mgm-3,28,R,ugm-3,46,R,ugm-3,88,R,ugm-3
11-01-1994,15:00,0.5,R,mgm-3,20,R,ugm-3,42,R,ugm-3,73,R,ugm-3
11-01-1994,16:00,,,,,,,,,,,,
11-01-1994,17:00,,,,,,,,,,,,
11-01-1994,18:00,1.2,R,mgm-3,24,R,ugm-3,52,R,ugm-3,88,R,ugm-3
11-01-1994,19:00,1.2,R,mgm-3,24,R,ugm-3,57,R,ugm-3,94,R,ugm-3
11-01-1994,20:00,1.4,R,mgm-3,34,R,ugm-3,65,R,ugm-3,117,R,ugm-3
11-01-1994,21:00,1.0,R,mgm-3,18,R,ugm-3,55,R,ugm-3,82,R,ugm-3
11-01-1994,22:00,0.8,R,mgm-3,13,R,ugm-3,48,R,ugm-3,67,R,ugm-3
11-01-1994,23:00,0.8,R,mgm-3,18,R,ugm-3,52,R,ugm-3,78,R,ugm-3
11-01-1994,24:00,0.7,R,mgm-3,11,R,ugm-3,44,R,ugm-3,61,R,ugm-3
12-01-1994,01:00,0.5,R,mgm-3,10,R,ugm-3,29,R,ugm-3,44,R,ugm-3
12-01-1994,02:00,0.3,R,mgm-3,6,R,ugm-3,15,R,ugm-3,25,R,ugm-3
12-01-1994,03:00,0.3,R,mgm-3,14,R,ugm-3,21,R,ugm-3,42,R,ugm-3
12-01-1994,04:00,0.3,R,mgm-3,10,R,ugm-3,23,R,ugm-3,38,R,ugm-3
12-01-1994,05:00,0.3,R,mgm-3,5,R,ugm-3,13,R,ugm-3,21,R,ugm-3
12-01-1994,06:00,0.3,R,mgm-3,10,R,ugm-3,17,R,ugm-3,32,R,ugm-3
12-01-1994,07:00,0.5,R,mgm-3,19,R,ugm-3,23,R,ugm-3,52,R,ugm-3
12-01-1994,08:00,0.8,R,mgm-3,21,R,ugm-3,31,R,ugm-3,63,R,ugm-3
12-01-1994,09:00,1.0,R,mgm-3,23,R,ugm-3,34,R,ugm-3,69,R,ugm-3
12-01-1994,10:00,1.0,R,mgm-3,34,R,ugm-3,38,R,ugm-3,90,R,ugm-3
12-01-1994,11:00,0.9,R,mgm-3,35,R,ugm-3,40,R,ugm-3,94,R,ugm-3
12-01-1994,12:00,0.8,R,mgm-3,35,R,ugm-3,36,R,ugm-3,90,R,ugm-3
12-01-1994,13:00,0.8,R,mgm-3,29,R,ugm-3,34,R,ugm-3,78,R,ugm-3
12-01-1994,14:00,0.6,R,mgm-3,14,R,ugm-3,23,R,ugm-3,44,R,ugm-3
12-01-1994,15:00,0.7,R,mgm-3,19,R,ugm-3,27,R,ugm-3,55,R,ugm-3
12-01-1994,16:00,0.7,R,mgm-3,15,R,ugm-3,25,R,ugm-3,48,R,ugm-3
12-01-1994,17:00,0.6,R,mgm-3,13,R,ugm-3,21,R,ugm-3,40,R,ugm-3
12-01-1994,18:00,0.7,R,mgm-3,11,R,ugm-3,21,R,ugm-3,38,R,ugm-3
12-01-1994,19:00,0.7,R,mgm-3,10,R,ugm-3,21,R,ugm-3,36,R,ugm-3
12-01-1994,20:00,0.6,R,mgm-3,8,R,ugm-3,15,R,ugm-3,27,R,ugm-3
12-01-1994,21:00,0.6,R,mgm-3,9,R,ugm-3,23,R,ugm-3,36,R,ugm-3
12-01-1994,22:00,0.3,R,mgm-3,5,R,ugm-3,15,R,ugm-3,23,R,ugm-3
12-01-1994,23:00,0.3,R,mgm-3,5,R,ugm-3,11,R,ugm-3,19,R,ugm-3
12-01-1994,24:00,0.3,R,mgm-3,5,R,ugm-3,13,R,ugm-3,21,R,ugm-3
13-01-1994,01:00,0.2,R,mgm-3,4,R,ugm-3,15,R,ugm-3,21,R,ugm-3
13-01-1994,02:00,0.2,R,mgm-3,4,R,ugm-3,11,R,ugm-3,17,R,ugm-3
13-01-1994,03:00,0.2,R,mgm-3,1,R,ugm-3,8,R,ugm-3,10,R,ugm-3
13-01-1994,04:00,0.2,R,mgm-3,5,R,ugm-3,13,R,ugm-3,21,R,ugm-3
13-01-1994,05:00,0.2,R,mgm-3,4,R,ugm-3,10,R,ugm-3,15,R,ugm-3
13-01-1994,06:00,0.2,R,mgm-3,4,R,ugm-3,15,R,ugm-3,21,R,ugm-3
13-01-1994,07:00,0.3,R,mgm-3,10,R,ugm-3,23,R,ugm-3,38,R,ugm-3
13-01-1994,08:00,0.7,R,mgm-3,23,R,ugm-3,40,R,ugm-3,74,R,ugm-3
13-01-1994,09:00,0.9,R,mgm-3,30,R,ugm-3,52,R,ugm-3,97,R,ugm-3
13-01-1994,10:00,0.9,R,mgm-3,33,R,ugm-3,50,R,ugm-3,99,R,ugm-3
13-01-1994,11:00,0.7,R,mgm-3,29,R,ugm-3,40,R,ugm-3,84,R,ugm-3
13-01-1994,12:00,0.7,R,mgm-3,29,R,ugm-3,42,R,ugm-3,86,R,ugm-3
13-01-1994,13:00,0.6,R,mgm-3,24,R,ugm-3,36,R,ugm-3,73,R,ugm-3
13-01-1994,14:00,0.7,R,mgm-3,21,R,ugm-3,38,R,ugm-3,71,R,ugm-3
13-01-1994,15:00,0.6,R,mgm-3,21,R,ugm-3,36,R,ugm-3,69,R,ugm-3
13-01-1994,16:00,0.7,R,mgm-3,19,R,ugm-3,38,R,ugm-3,67,R,ugm-3
13-01-1994,17:00,1.0,R,mgm-3,30,R,ugm-3,52,R,ugm-3,97,R,ugm-3
13-01-1994,18:00,1.6,R,mgm-3,45,R,ugm-3,67,R,ugm-3,136,R,ugm-3
13-01-1994,19:00,1.2,R,mgm-3,29,R,ugm-3,57,R,ugm-3,101,R,ugm-3
13-01-1994,20:00,1.0,R,mgm-3,21,R,ugm-3,52,R,ugm-3,84,R,ugm-3
13-01-1994,21:00,0.8,R,mgm-3,21,R,ugm-3,48,R,ugm-3,80,R,ugm-3
13-01-1994,22:00,0.6,R,mgm-3,18,R,ugm-3,38,R,ugm-3,65,R,ugm-3
13-01-1994,23:00,0.5,R,mgm-3,16,R,ugm-3,36,R,ugm-3,61,R,ugm-3
13-01-1994,24:00,0.5,R,mgm-3,14,R,ugm-3,32,R,ugm-3,53,R,ugm-3
14-01-1994,01:00,0.3,R,mgm-3,13,R,ugm-3,31,R,ugm-3,50,R,ugm-3
14-01-1994,02:00,0.2,R,mgm-3,8,R,ugm-3,21,R,ugm-3,32,R,ugm-3
14-01-1994,03:00,0.2,R,mgm-3,5,R,ugm-3,21,R,ugm-3,29,R,ugm-3
14-01-1994,04:00,0.1,R,mgm-3,4,R,ugm-3,15,R,ugm-3,21,R,ugm-3
14-01-1994,05:00,0.1,R,mgm-3,3,R,ugm-3,13,R,ugm-3,17,R,ugm-3
14-01-1994,06:00,0.2,R,mgm-3,4,R,ugm-3,19,R,ugm-3,25,R,ugm-3
14-01-1994,07:00,0.5,R,mgm-3,21,R,ugm-3,44,R,ugm-3,76,R,ugm-3
14-01-1994,08:00,0.8,R,mgm-3,31,R,ugm-3,61,R,ugm-3,109,R,ugm-3
14-01-1994,09:00,1.0,R,mgm-3,40,R,ugm-3,63,R,ugm-3,124,R,ugm-3
14-01-1994,10:00,1.0,R,mgm-3,44,R,ugm-3,61,R,ugm-3,128,R,ugm-3
14-01-1994,11:00,0.9,R,mgm-3,50,R,ugm-3,59,R,ugm-3,136,R,ugm-3
14-01-1994,12:00,0.7,R,mgm-3,43,R,ugm-3,53,R,ugm-3,118,R,ugm-3
14-01-1994,13:00,0.7,R,mgm-3,26,R,ugm-3,40,R,ugm-3,80,R,ugm-3
14-01-1994,14:00,0.8,R,mgm-3,25,R,ugm-3,46,R,ugm-3,84,R,ugm-3
14-01-1994,15:00,0.7,R,mgm-3,29,R,ugm-3,50,R,ugm-3,94,R,ugm-3
14-01-1994,16:00,1.0,R,mgm-3,50,R,ugm-3,67,R,ugm-3,143,R,ugm-3
14-01-1994,17:00,1.3,R,mgm-3,38,R,ugm-3,63,R,ugm-3,120,R,ugm-3
14-01-1994,18:00,1.4,R,mgm-3,48,R,ugm-3,69,R,ugm-3,141,R,ugm-3
14-01-1994,19:00,1.6,R,mgm-3,59,R,ugm-3,71,R,ugm-3,160,R,ugm-3
14-01-1994,20:00,1.7,R,mgm-3,78,R,ugm-3,76,R,ugm-3,195,R,ugm-3
14-01-1994,21:00,1.5,R,mgm-3,69,R,ugm-3,74,R,ugm-3,180,R,ugm-3
14-01-1994,22:00,1.0,R,mgm-3,60,R,ugm-3,67,R,ugm-3,159,R,ugm-3
14-01-1994,23:00,0.8,R,mgm-3,46,R,ugm-3,63,R,ugm-3,134,R,ugm-3
14-01-1994,24:00,0.8,R,mgm-3,41,R,ugm-3,59,R,ugm-3,122,R,ugm-3
15-01-1994,01:00,0.8,R,mgm-3,45,R,ugm-3,59,R,ugm-3,128,R,ugm-3
15-01-1994,02:00,0.7,R,mgm-3,30,R,ugm-3,57,R,ugm-3,103,R,ugm-3
15-01-1994,03:00,0.7,R,mgm-3,31,R,ugm-3,52,R,ugm-3,99,R,ugm-3
15-01-1994,04:00,0.7,R,mgm-3,23,R,ugm-3,53,R,ugm-3,88,R,ugm-3
15-01-1994,05:00,0.8,R,mgm-3,48,R,ugm-3,65,R,ugm-3,138,R,ugm-3
15-01-1994,06:00,0.7,R,mgm-3,28,R,ugm-3,57,R,ugm-3,99,R,ugm-3
15-01-1994,07:00,0.9,R,mgm-3,51,R,ugm-3,65,R,ugm-3,143,R,ugm-3
15-01-1994,08:00,1.3,R,mgm-3,88,R,ugm-3,80,R,ugm-3,214,R,ugm-3
15-01-1994,09:00,1.5,R,mgm-3,114,R,ugm-3,94,R,ugm-3,267,R,ugm-3
15-01-1994,10:00,1.7,R,mgm-3,105,R,ugm-3,84,R,ugm-3,244,R,ugm-3
15-01-1994,11:00,2.2,R,mgm-3,141,R,ugm-3,88,R,ugm-3,304,R,ugm-3
15-01-1994,12:00,2.6,R,mgm-3,134,R,ugm-3,80,R,ugm-3,285,R,ugm-3
15-01-1994,13:00,1.9,R,mgm-3,76,R,ugm-3,71,R,ugm-3,187,R,ugm-3
15-01-1994,14:00,1.6,R,mgm-3,56,R,ugm-3,65,R,ugm-3,151,R,ugm-3
15-01-1994,15:00,1.3,R,mgm-3,44,R,ugm-3,59,R,ugm-3,126,R,ugm-3
15-01-1994,16:00,1.3,R,mgm-3,44,R,ugm-3,63,R,ugm-3,130,R,ugm-3
15-01-1994,17:00,1.6,R,mgm-3,70,R,ugm-3,65,R,ugm-3,172,R,ugm-3
15-01-1994,18:00,1.5,R,mgm-3,83,R,ugm-3,69,R,ugm-3,195,R,ugm-3
15-01-1994,19:00,1.6,R,mgm-3,84,R,ugm-3,69,R,ugm-3,197,R,ugm-3
15-01-1994,20:00,1.7,R,mgm-3,74,R,ugm-3,65,R,ugm-3,178,R,ugm-3
15-01-1994,21:00,1.4,R,mgm-3,43,R,ugm-3,61,R,ugm-3,126,R,ugm-3
15-01-1994,22:00,1.0,R,mgm-3,26,R,ugm-3,59,R,ugm-3,99,R,ugm-3
15-01-1994,23:00,0.8,R,mgm-3,14,R,ugm-3,53,R,ugm-3,74,R,ugm-3
15-01-1994,24:00,0.8,R,mgm-3,9,R,ugm-3,44,R,ugm-3,57,R,ugm-3
16-01-1994,01:00,0.7,R,mgm-3,9,R,ugm-3,31,R,ugm-3,44,R,ugm-3
16-01-1994,02:00,0.5,R,mgm-3,6,R,ugm-3,34,R,ugm-3,44,R,ugm-3
16-01-1994,03:00,0.6,R,mgm-3,6,R,ugm-3,29,R,ugm-3,38,R,ugm-3
16-01-1994,04:00,0.3,R,mgm-3,0,R,ugm-3,21,R,ugm-3,21,R,ugm-3
16-01-1994,05:00,0.3,R,mgm-3,0,R,ugm-3,15,R,ugm-3,15,R,ugm-3
16-01-1994,06:00,0.2,R,mgm-3,0,R,ugm-3,19,R,ugm-3,19,R,ugm-3
16-01-1994,07:00,0.3,R,mgm-3,3,R,ugm-3,29,R,ugm-3,32,R,ugm-3
16-01-1994,08:00,0.3,R,mgm-3,9,R,ugm-3,34,R,ugm-3,48,R,ugm-3
16-01-1994,09:00,0.5,R,mgm-3,10,R,ugm-3,34,R,ugm-3,50,R,ugm-3
16-01-1994,10:00,0.6,R,mgm-3,14,R,ugm-3,38,R,ugm-3,59,R,ugm-3
16-01-1994,11:00,0.7,R,mgm-3,18,R,ugm-3,34,R,ugm-3,61,R,ugm-3
16-01-1994,12:00,0.8,R,mgm-3,16,R,ugm-3,31,R,ugm-3,55,R,ugm-3
16-01-1994,13:00,1.0,R,mgm-3,16,R,ugm-3,34,R,ugm-3,59,R,ugm-3
16-01-1994,14:00,0.8,R,mgm-3,18,R,ugm-3,34,R,ugm-3,61,R,ugm-3
16-01-1994,15:00,0.7,R,mgm-3,11,R,ugm-3,31,R,ugm-3,48,R,ugm-3
16-01-1994,16:00,0.8,R,mgm-3,13,R,ugm-3,40,R,ugm-3,59,R,ugm-3
16-01-1994,17:00,1.0,R,mgm-3,31,R,ugm-3,55,R,ugm-3,103,R,ugm-3
16-01-1994,18:00,1.2,R,mgm-3,53,R,ugm-3,63,R,ugm-3,143,R,ugm-3
16-01-1994,19:00,1.4,R,mgm-3,78,R,ugm-3,61,R,ugm-3,180,R,ugm-3
16-01-1994,20:00,1.7,R,mgm-3,101,R,ugm-3,61,R,ugm-3,216,R,ugm-3